Location: Bari
(41.1330°N, 16.8500°E)
Time: 06:02:17
(UTC+01:00)

ISS - Visible Passes

Search period start: 20 January 2019 00:00
Search period end: 30 January 2019 00:00
Orbit: 404 x 410 km, 51.6° (Epoch: 20 January)

Date Brightness Start Highest point End Pass type
(mag) Time Alt. Az. Time Alt. Az. Time Alt. Az.
21 Jan -2.6 18:43:52 10° SSW 18:46:04 32° S 18:46:04 32° S visible
22 Jan -2.2 17:53:09 10° S 17:55:45 22° SE 17:57:11 17° E visible
22 Jan -0.9 19:28:55 10° WSW 19:29:55 18° W 19:29:55 18° W visible
23 Jan -3.9 18:37:23 10° WSW 18:40:40 78° NW 18:40:56 71° NNE visible
24 Jan -3.5 17:46:05 10° SW 17:49:18 55° SE 17:51:52 15° ENE visible
24 Jan -1.1 19:23:15 10° W 19:24:36 18° WNW 19:24:36 18° WNW visible
25 Jan -2.6 18:31:24 10° W 18:34:29 35° NNW 18:35:27 29° N visible
26 Jan -3.4 17:39:43 10° WSW 17:42:59 59° NNW 17:46:14 10° NE visible
26 Jan -1.1 19:17:47 10° WNW 19:18:57 15° NW 19:18:57 15° NW visible
27 Jan -1.8 18:25:45 10° WNW 18:28:23 21° NNW 18:29:41 17° NNE visible
28 Jan -2.3 17:33:48 10° W 17:36:45 29° NNW 17:39:43 10° NE visible
28 Jan -1.0 19:12:17 10° NW 19:13:05 12° NNW 19:13:05 12° NNW visible
29 Jan -1.5 18:20:15 10° NW 18:22:20 16° NNW 18:23:44 13° NNE visible
